User: anonymous   Login
Location: Unspecified
(0.0000°N, 0.0000°E)
Time: 21:59:16
(UTC+00:00)
Language:

Jikiken - Orbit

View from above orbital plane
View from above orbital plane
View from above satellite
View from above satellite

Ground track
Ground track

The orbit data is extracted from the following two-line orbital elements,

1 11027U 78087A   17082.89429517 +.00332878 -76520-6 +32069-3 0  9995
2 11027 031.1136 169.3971 3348939 246.6501 074.9835 08.93228986433008
Epoch (UTC): 23 March 2017 21:27:47
Eccentricity: 0.3348939
inclination: 31.1136°
perigee height: 148 km
apogee height: 6720 km
right ascension of ascending node: 169.3971°
argument of perigee: 246.6501°
revolutions per day: 8.93228986
mean anomaly at epoch: 74.9835°
orbit number at epoch: 43300

The dashed part of the orbit path shows where the satellite is in the earth's shadow,  

DLR